Location: Joplin, MO
(37.0842°N, 94.5133°W)
Time: 21:20:34
(UTC+02:00)

Transit 2A Rocket - Pass Details

Date: 01 April 2023
Orbit: 584 x 914 km, 66.7° (Epoch: 06 June)

Event Time Altitude Azimuth Distance (km) Brightness Sun altitude
Rises 18:39:47 0° 239° (WSW) 3,256 8.2 50.0°
Reaches altitude 10° 18:42:27 10° 251° (WSW) 2,386 7.5 50.4°
Maximum altitude 18:47:10 28° 309° (NW) 1,544 6.5 51.0°
Drops below altitude 10° 18:52:12 10° 7° (N) 2,552 7.5 51.6°
Sets 18:55:10 0° 19° (NNE) 3,525 8.2 52.0°
